,,PressureMeas_1m,,PRMeasQMR101_1,,RHStat155_1m_1,,SRMeasQMS101R_1m,,TAStat155_1m_1,,GenWind_1,,GenWind_1,
2018-12-09, 00:00:07,VALID,918.496,VALID,0.0,VALID,98.875,VALID,-0.015,VALID,20.565,VALID,83.0,VALID,0.0,
2018-12-09, 00:01:07,VALID,918.482,VALID,0.0,VALID,98.891,VALID,0.0,VALID,20.576,VALID,76.0,VALID,0.0,
2018-12-09, 00:02:07,VALID,918.501,VALID,0.0,VALID,98.896,VALID,-0.017,VALID,20.606,VALID,71.0,VALID,0.0,
2018-12-09, 00:03:07,VALID,918.501,VALID,0.0,VALID,98.915,VALID,-0.039,VALID,20.629,VALID,75.0,VALID,0.0,
2018-12-09, 00:04:07,VALID,918.498,VALID,0.0,VALID,98.915,VALID,-0.033,VALID,20.626,VALID,79.0,VALID,0.0,
2018-12-09, 00:05:07,VALID,918.503,VALID,0.0,VALID,98.88,VALID,-0.025,VALID,20.572,VALID,91.0,VALID,0.0,
2018-12-09, 00:06:07,VALID,918.497,VALID,0.0,VALID,98.847,VALID,-0.031,VALID,20.535,VALID,100.0,VALID,0.0,
2018-12-09, 00:07:07,VALID,918.485,VALID,0.0,VALID,98.87,VALID,-0.024,VALID,20.531,VALID,97.0,VALID,0.0,
2018-12-09, 00:08:07,VALID,918.482,VALID,0.0,VALID,98.882,VALID,-0.026,VALID,20.534,VALID,92.0,VALID,0.0,
2018-12-09, 00:09:07,VALID,918.49,VALID,0.0,VALID,98.907,VALID,-0.04,VALID,20.551,VALID,89.0,VALID,0.0,
2018-12-09, 00:10:07,VALID,918.467,VALID,0.0,VALID,98.917,VALID,-0.014,VALID,20.561,VALID,88.0,VALID,0.0,
2018-12-09, 00:11:07,VALID,918.473,VALID,0.0,VALID,98.91,VALID,-0.023,VALID,20.542,VALID,88.0,VALID,0.0,
2018-12-09, 00:12:07,VALID,918.489,VALID,0.0,VALID,98.895,VALID,-0.027,VALID,20.517,VALID,87.0,VALID,0.0,
2018-12-09, 00:13:07,VALID,918.47,VALID,0.0,VALID,98.895,VALID,-0.031,VALID,20.496,VALID,91.0,VALID,0.0,
2018-12-09, 00:14:07,VALID,918.469,VALID,0.0,VALID,98.932,VALID,-0.021,VALID,20.515,VALID,85.0,VALID,0.0,
2018-12-09, 00:15:07,VALID,918.473,VALID,0.0,VALID,98.94,VALID,-0.029,VALID,20.522,VALID,82.0,VALID,0.0,
2018-12-09, 00:16:07,VALID,918.471,VALID,0.0,VALID,98.947,VALID,-0.015,VALID,20.528,VALID,82.0,VALID,0.0,
2018-12-09, 00:17:07,VALID,918.46,VALID,0.0,VALID,98.942,VALID,-0.016,VALID,20.514,VALID,84.0,VALID,0.0,
2018-12-09, 00:18:07,VALID,918.465,VALID,0.0,VALID,98.935,VALID,-0.027,VALID,20.509,VALID,88.0,VALID,0.0,
2018-12-09, 00:19:07,VALID,918.456,VALID,0.0,VALID,98.968,VALID,-0.005,VALID,20.513,VALID,93.0,VALID,0.0,
2018-12-09, 00:20:07,VALID,918.467,VALID,0.0,VALID,98.967,VALID,-0.013,VALID,20.506,VALID,112.0,VALID,0.0,
2018-12-09, 00:21:07,VALID,918.459,VALID,0.0,VALID,98.966,VALID,-0.028,VALID,20.493,VALID,102.0,VALID,0.0,
2018-12-09, 00:22:07,VALID,918.445,VALID,0.0,VALID,98.969,VALID,-0.017,VALID,20.487,VALID,102.0,VALID,0.0,
2018-12-09, 00:23:07,VALID,918.437,VALID,0.0,VALID,98.975,VALID,-0.023,VALID,20.482,VALID,104.0,VALID,0.0,
2018-12-09, 00:24:07,VALID,918.425,VALID,0.0,VALID,98.976,VALID,-0.042,VALID,20.477,VALID,95.0,VALID,0.0,
2018-12-09, 00:25:07,VALID,918.418,VALID,0.0,VALID,98.985,VALID,-0.021,VALID,20.469,VALID,94.0,VALID,0.0,
2018-12-09, 00:26:07,VALID,918.4,VALID,0.0,VALID,99.003,VALID,-0.012,VALID,20.488,VALID,83.0,VALID,0.0,
2018-12-09, 00:27:06,VALID,918.392,VALID,0.0,VALID,99.019,VALID,-0.026,VALID,20.512,VALID,82.0,VALID,0.0,
2018-12-09, 00:28:06,VALID,918.371,VALID,0.0,VALID,99.029,VALID,-0.007,VALID,20.521,VALID,84.0,VALID,0.0,
2018-12-09, 00:29:06,VALID,918.385,VALID,0.0,VALID,99.008,VALID,-0.009,VALID,20.518,VALID,84.0,VALID,0.0,
2018-12-09, 00:30:06,VALID,918.358,VALID,0.0,VALID,98.987,VALID,-0.014,VALID,20.508,VALID,83.0,VALID,0.0,
2018-12-09, 00:31:06,VALID,918.35,VALID,0.0,VALID,98.982,VALID,-0.014,VALID,20.492,VALID,85.0,VALID,0.0,
2018-12-09, 00:32:06,VALID,918.328,VALID,0.0,VALID,98.975,VALID,-0.013,VALID,20.478,VALID,100.0,VALID,0.0,
2018-12-09, 00:33:06,VALID,918.317,VALID,0.0,VALID,98.935,VALID,-0.018,VALID,20.46,VALID,95.0,VALID,0.0,
2018-12-09, 00:34:06,VALID,918.31,VALID,0.0,VALID,98.938,VALID,-0.015,VALID,20.45,VALID,95.0,VALID,0.0,
2018-12-09, 00:35:06,VALID,918.306,VALID,0.0,VALID,98.926,VALID,-0.01,VALID,20.434,VALID,97.0,VALID,0.0,
2018-12-09, 00:36:06,VALID,918.286,VALID,0.0,VALID,98.919,VALID,-0.02,VALID,20.434,VALID,106.0,VALID,0.0,
2018-12-09, 00:37:06,VALID,918.293,VALID,0.0,VALID,98.94,VALID,-0.017,VALID,20.437,VALID,99.0,VALID,0.0,
2018-12-09, 00:38:06,VALID,918.3,VALID,0.0,VALID,98.941,VALID,-0.027,VALID,20.441,VALID,101.0,VALID,0.0,
2018-12-09, 00:39:06,VALID,918.29,VALID,0.0,VALID,98.924,VALID,-0.029,VALID,20.432,VALID,99.0,VALID,0.0,
2018-12-09, 00:40:06,VALID,918.287,VALID,0.0,VALID,98.893,VALID,-0.009,VALID,20.411,VALID,111.0,VALID,0.0,
2018-12-09, 00:41:06,VALID,918.275,VALID,0.0,VALID,98.879,VALID,0.011,VALID,20.397,VALID,111.0,VALID,0.0,
2018-12-09, 00:42:06,VALID,918.278,VALID,0.0,VALID,98.861,VALID,-0.016,VALID,20.387,VALID,113.0,VALID,0.0,
2018-12-09, 00:43:06,VALID,918.27,VALID,0.0,VALID,98.847,VALID,-0.0,VALID,20.38,VALID,121.0,VALID,0.0,
2018-12-09, 00:44:06,VALID,918.263,VALID,0.0,VALID,98.852,VALID,-0.006,VALID,20.395,VALID,123.0,VALID,0.0,
2018-12-09, 00:45:06,VALID,918.249,VALID,0.0,VALID,98.81,VALID,-0.004,VALID,20.385,VALID,117.0,VALID,0.0,
2018-12-09, 00:46:06,VALID,918.245,VALID,0.0,VALID,98.826,VALID,-0.004,VALID,20.382,VALID,116.0,VALID,0.0,
2018-12-09, 00:47:06,VALID,918.243,VALID,0.0,VALID,98.825,VALID,-0.006,VALID,20.39,VALID,116.0,VALID,0.0,
2018-12-09, 00:48:06,VALID,918.229,VALID,0.0,VALID,98.826,VALID,-0.017,VALID,20.391,VALID,122.0,VALID,0.0,
2018-12-09, 00:49:06,VALID,918.205,VALID,0.0,VALID,98.861,VALID,-0.022,VALID,20.386,VALID,117.0,VALID,0.0,
2018-12-09, 00:50:06,VALID,918.199,VALID,0.0,VALID,98.848,VALID,-0.028,VALID,20.378,VALID,120.0,VALID,0.0,
2018-12-09, 00:51:06,VALID,918.173,VALID,0.0,VALID,98.87,VALID,-0.004,VALID,20.376,VALID,116.0,VALID,0.0,
2018-12-09, 00:52:06,VALID,918.175,VALID,0.0,VALID,98.899,VALID,0.003,VALID,20.387,VALID,116.0,VALID,0.0,
2018-12-09, 00:53:06,VALID,918.157,VALID,0.0,VALID,98.9,VALID,0.006,VALID,20.366,VALID,119.0,VALID,0.0,
2018-12-09, 00:54:06,VALID,918.141,VALID,0.0,VALID,98.897,VALID,0.006,VALID,20.362,VALID,123.0,VALID,0.0,
2018-12-09, 00:55:06,VALID,918.136,VALID,0.0,VALID,98.899,VALID,0.007,VALID,20.348,VALID,115.0,VALID,0.0,
2018-12-09, 00:56:06,VALID,918.107,VALID,0.0,VALID,98.878,VALID,0.007,VALID,20.337,VALID,115.0,VALID,0.0,
2018-12-09, 00:57:06,VALID,918.096,VALID,0.0,VALID,98.903,VALID,0.013,VALID,20.343,VALID,118.0,VALID,0.0,
2018-12-09, 00:58:06,VALID,918.082,VALID,0.0,VALID,98.91,VALID,0.012,VALID,20.336,VALID,117.0,VALID,0.0,
2018-12-09, 00:59:06,VALID,918.063,VALID,0.0,VALID,98.904,VALID,0.014,VALID,20.324,VALID,117.0,VALID,0.0,
2018-12-09, 01:00:06,VALID,918.059,VALID,0.0,VALID,98.919,VALID,0.008,VALID,20.341,VALID,126.0,VALID,0.0,
2018-12-09, 01:01:06,VALID,918.033,VALID,0.0,VALID,98.925,VALID,0.012,VALID,20.346,VALID,123.0,VALID,0.0,
2018-12-09, 01:02:06,VALID,918.02,VALID,0.0,VALID,98.883,VALID,0.01,VALID,20.338,VALID,125.0,VALID,0.0,
2018-12-09, 01:03:06,VALID,917.996,VALID,0.0,VALID,98.872,VALID,-0.003,VALID,20.343,VALID,124.0,VALID,0.0,
2018-12-09, 01:04:06,VALID,917.99,VALID,0.0,VALID,98.843,VALID,0.011,VALID,20.346,VALID,127.0,VALID,0.0,
2018-12-09, 01:05:06,VALID,917.968,VALID,0.0,VALID,98.827,VALID,0.015,VALID,20.359,VALID,129.0,VALID,0.0,
2018-12-09, 01:06:06,VALID,917.956,VALID,0.0,VALID,98.786,VALID,0.001,VALID,20.367,VALID,127.0,VALID,0.0,
2018-12-09, 01:07:06,VALID,917.952,VALID,0.0,VALID,98.738,VALID,-0.005,VALID,20.372,VALID,127.0,VALID,0.0,
2018-12-09, 01:08:06,VALID,917.95,VALID,0.0,VALID,98.719,VALID,0.006,VALID,20.363,VALID,127.0,VALID,0.0,
2018-12-09, 01:09:06,VALID,917.925,VALID,0.0,VALID,98.624,VALID,0.015,VALID,20.351,VALID,129.0,VALID,0.0,
2018-12-09, 01:10:06,VALID,917.928,VALID,0.0,VALID,98.55,VALID,0.001,VALID,20.337,VALID,119.0,VALID,0.0,
2018-12-09, 01:11:06,VALID,917.899,VALID,0.0,VALID,98.447,VALID,0.001,VALID,20.326,VALID,115.0,VALID,0.0,
2018-12-09, 01:12:06,VALID,917.89,VALID,0.0,VALID,98.402,VALID,-0.003,VALID,20.32,VALID,110.0,VALID,0.0,
2018-12-09, 01:13:06,VALID,917.855,VALID,0.0,VALID,98.345,VALID,-0.01,VALID,20.309,VALID,109.0,VALID,0.0,
2018-12-09, 01:14:06,VALID,917.841,VALID,0.0,VALID,98.286,VALID,0.003,VALID,20.299,VALID,110.0,VALID,0.0,
2018-12-09, 01:15:06,VALID,917.825,VALID,0.0,VALID,98.193,VALID,-0.003,VALID,20.31,VALID,104.0,VALID,0.0,
2018-12-09, 01:16:06,VALID,917.805,VALID,0.0,VALID,98.075,VALID,0.015,VALID,20.329,VALID,105.0,VALID,0.0,
2018-12-09, 01:17:06,VALID,917.79,VALID,0.0,VALID,97.891,VALID,-0.008,VALID,20.348,VALID,116.0,VALID,0.0,
2018-12-09, 01:18:06,VALID,917.784,VALID,0.0,VALID,97.697,VALID,-0.005,VALID,20.367,VALID,118.0,VALID,0.0,
2018-12-09, 01:19:06,VALID,917.764,VALID,0.0,VALID,97.503,VALID,0.007,VALID,20.388,VALID,104.0,VALID,0.0,
2018-12-09, 01:20:06,VALID,917.741,VALID,0.0,VALID,97.423,VALID,0.002,VALID,20.406,VALID,104.0,VALID,0.0,
2018-12-09, 01:21:06,VALID,917.724,VALID,0.0,VALID,97.339,VALID,-0.006,VALID,20.407,VALID,117.0,VALID,0.0,
2018-12-09, 01:22:06,VALID,917.71,VALID,0.0,VALID,97.295,VALID,0.001,VALID,20.4,VALID,123.0,VALID,0.0,
2018-12-09, 01:23:06,VALID,917.69,VALID,0.0,VALID,97.328,VALID,0.003,VALID,20.4,VALID,121.0,VALID,0.0,
2018-12-09, 01:24:06,VALID,917.669,VALID,0.0,VALID,97.338,VALID,0.013,VALID,20.394,VALID,116.0,VALID,0.0,
2018-12-09, 01:25:06,VALID,917.662,VALID,0.0,VALID,97.352,VALID,0.001,VALID,20.38,VALID,116.0,VALID,0.0,
2018-12-09, 01:26:06,VALID,917.627,VALID,0.0,VALID,97.391,VALID,0.002,VALID,20.372,VALID,121.0,VALID,0.0,
2018-12-09, 01:27:06,VALID,917.608,VALID,0.0,VALID,97.465,VALID,0.006,VALID,20.384,VALID,117.0,VALID,0.0,
2018-12-09, 01:28:06,VALID,917.601,VALID,0.0,VALID,97.437,VALID,-0.004,VALID,20.373,VALID,115.0,VALID,0.0,
2018-12-09, 01:29:06,VALID,917.587,VALID,0.0,VALID,97.377,VALID,0.004,VALID,20.359,VALID,110.0,VALID,0.0,
2018-12-09, 01:30:06,VALID,917.564,VALID,0.0,VALID,97.347,VALID,0.003,VALID,20.353,VALID,110.0,VALID,0.0,
2018-12-09, 01:31:06,VALID,917.547,VALID,0.0,VALID,97.319,VALID,0.019,VALID,20.355,VALID,103.0,VALID,0.0,
2018-12-09, 01:32:06,VALID,917.538,VALID,0.0,VALID,97.397,VALID,0.012,VALID,20.361,VALID,98.0,VALID,0.0,
2018-12-09, 01:33:06,VALID,917.516,VALID,0.0,VALID,97.344,VALID,0.004,VALID,20.363,VALID,109.0,VALID,0.0,
2018-12-09, 01:34:06,VALID,917.506,VALID,0.0,VALID,97.294,VALID,0.01,VALID,20.369,VALID,96.0,VALID,0.0,
2018-12-09, 01:35:06,VALID,917.494,VALID,0.0,VALID,97.249,VALID,0.011,VALID,20.374,VALID,105.0,VALID,0.0,
2018-12-09, 01:36:06,VALID,917.478,VALID,0.0,VALID,97.189,VALID,-0.017,VALID,20.376,VALID,105.0,VALID,0.0,
2018-12-09, 01:37:06,VALID,917.475,VALID,0.0,VALID,97.255,VALID,0.0,VALID,20.378,VALID,94.0,VALID,0.0,
2018-12-09, 01:38:06,VALID,917.454,VALID,0.0,VALID,97.235,VALID,0.008,VALID,20.376,VALID,100.0,VALID,0.0,
2018-12-09, 01:39:06,VALID,917.438,VALID,0.0,VALID,97.221,VALID,-0.002,VALID,20.376,VALID,97.0,VALID,0.0,
2018-12-09, 01:40:06,VALID,917.426,VALID,0.0,VALID,97.142,VALID,0.006,VALID,20.382,VALID,93.0,VALID,0.0,
2018-12-09, 01:41:06,VALID,917.39,VALID,0.0,VALID,97.188,VALID,-0.003,VALID,20.405,VALID,83.0,VALID,0.0,
2018-12-09, 01:42:06,VALID,917.367,VALID,0.0,VALID,97.16,VALID,-0.006,VALID,20.396,VALID,81.0,VALID,0.0,
2018-12-09, 01:43:06,VALID,917.359,VALID,0.0,VALID,97.181,VALID,-0.004,VALID,20.385,VALID,87.0,VALID,0.0,
2018-12-09, 01:44:06,VALID,917.336,VALID,0.0,VALID,97.189,VALID,-0.012,VALID,20.376,VALID,94.0,VALID,0.0,
2018-12-09, 01:45:06,VALID,917.311,VALID,0.0,VALID,97.158,VALID,-0.001,VALID,20.363,VALID,94.0,VALID,0.0,
2018-12-09, 01:46:06,VALID,917.3,VALID,0.0,VALID,97.275,VALID,-0.015,VALID,20.367,VALID,94.0,VALID,0.0,
2018-12-09, 01:47:06,VALID,917.28,VALID,0.0,VALID,97.335,VALID,-0.005,VALID,20.354,VALID,95.0,VALID,0.0,
2018-12-09, 01:48:06,VALID,917.239,VALID,0.0,VALID,97.34,VALID,-0.016,VALID,20.338,VALID,95.0,VALID,0.0,
2018-12-09, 01:49:06,VALID,917.239,VALID,0.0,VALID,97.49,VALID,-0.008,VALID,20.354,VALID,95.0,VALID,0.0,
2018-12-09, 01:50:06,VALID,917.215,VALID,0.0,VALID,97.627,VALID,-0.024,VALID,20.37,VALID,95.0,VALID,0.0,
2018-12-09, 01:51:06,VALID,917.207,VALID,0.0,VALID,97.736,VALID,-0.003,VALID,20.381,VALID,95.0,VALID,0.0,
2018-12-09, 01:52:06,VALID,917.177,VALID,0.0,VALID,97.739,VALID,-0.011,VALID,20.368,VALID,95.0,VALID,0.0,
2018-12-09, 01:53:06,VALID,917.165,VALID,0.0,VALID,97.737,VALID,-0.001,VALID,20.335,VALID,83.0,VALID,0.0,
2018-12-09, 01:54:06,VALID,917.146,VALID,0.0,VALID,97.789,VALID,0.001,VALID,20.324,VALID,82.0,VALID,0.0,
2018-12-09, 01:55:06,VALID,917.127,VALID,0.0,VALID,97.77,VALID,-0.0,VALID,20.295,VALID,74.0,VALID,0.0,
2018-12-09, 01:56:06,VALID,917.106,VALID,0.0,VALID,97.861,VALID,-0.01,VALID,20.293,VALID,63.0,VALID,0.0,
2018-12-09, 01:57:06,VALID,917.096,VALID,0.0,VALID,97.866,VALID,-0.019,VALID,20.267,VALID,59.0,VALID,0.0,
2018-12-09, 01:58:06,VALID,917.064,VALID,0.0,VALID,97.879,VALID,-0.006,VALID,20.256,VALID,50.0,VALID,0.0,
2018-12-09, 01:59:06,VALID,917.055,VALID,0.0,VALID,97.925,VALID,-0.019,VALID,20.25,VALID,42.0,VALID,0.0,
2018-12-09, 02:00:06,VALID,917.057,VALID,0.0,VALID,97.962,VALID,-0.006,VALID,20.251,VALID,26.0,VALID,0.0,
2018-12-09, 02:01:06,VALID,917.021,VALID,0.0,VALID,98.053,VALID,-0.001,VALID,20.259,VALID,12.0,VALID,0.0,
2018-12-09, 02:02:06,VALID,917.016,VALID,0.0,VALID,98.049,VALID,-0.015,VALID,20.249,VALID,17.0,VALID,0.0,
2018-12-09, 02:03:06,VALID,916.997,VALID,0.0,VALID,98.078,VALID,-0.021,VALID,20.249,VALID,17.0,VALID,0.0,
2018-12-09, 02:04:06,VALID,916.987,VALID,0.0,VALID,98.056,VALID,-0.032,VALID,20.253,VALID,18.0,VALID,0.0,
2018-12-09, 02:05:06,VALID,916.965,VALID,0.0,VALID,98.018,VALID,-0.018,VALID,20.244,VALID,19.0,VALID,0.0,
2018-12-09, 02:06:06,VALID,916.949,VALID,0.0,VALID,97.992,VALID,-0.022,VALID,20.249,VALID,30.0,VALID,0.0,
2018-12-09, 02:07:06,VALID,916.938,VALID,0.0,VALID,97.948,VALID,-0.028,VALID,20.24,VALID,30.0,VALID,0.0,
2018-12-09, 02:08:06,VALID,916.931,VALID,0.0,VALID,97.991,VALID,-0.02,VALID,20.258,VALID,31.0,VALID,0.0,
2018-12-09, 02:09:06,VALID,916.911,VALID,0.0,VALID,97.931,VALID,-0.012,VALID,20.256,VALID,33.0,VALID,0.0,
2018-12-09, 02:10:06,VALID,916.9,VALID,0.0,VALID,97.939,VALID,0.0,VALID,20.269,VALID,49.0,VALID,0.0,
2018-12-09, 02:11:06,VALID,916.893,VALID,0.0,VALID,97.857,VALID,0.013,VALID,20.268,VALID,67.0,VALID,0.0,
2018-12-09, 02:12:06,VALID,916.889,VALID,0.0,VALID,97.744,VALID,0.002,VALID,20.253,VALID,90.0,VALID,0.0,
2018-12-09, 02:13:06,VALID,916.872,VALID,0.0,VALID,97.676,VALID,0.007,VALID,20.251,VALID,95.0,VALID,0.0,
2018-12-09, 02:14:06,VALID,916.866,VALID,0.0,VALID,97.636,VALID,0.007,VALID,20.249,VALID,103.0,VALID,0.0,
2018-12-09, 02:15:06,VALID,916.826,VALID,0.0,VALID,97.616,VALID,0.018,VALID,20.259,VALID,93.0,VALID,0.0,
2018-12-09, 02:16:06,VALID,916.832,VALID,0.0,VALID,97.564,VALID,0.02,VALID,20.254,VALID,93.0,VALID,0.0,
2018-12-09, 02:17:06,VALID,916.818,VALID,0.0,VALID,97.604,VALID,0.011,VALID,20.263,VALID,93.0,VALID,0.0,
2018-12-09, 02:18:06,VALID,916.814,VALID,0.0,VALID,97.646,VALID,0.016,VALID,20.268,VALID,93.0,VALID,0.0,
2018-12-09, 02:19:06,VALID,916.803,VALID,0.0,VALID,97.717,VALID,0.019,VALID,20.284,VALID,93.0,VALID,0.0,
2018-12-09, 02:20:06,VALID,916.793,VALID,0.0,VALID,97.764,VALID,0.01,VALID,20.278,VALID,93.0,VALID,0.0,
2018-12-09, 02:21:06,VALID,916.772,VALID,0.0,VALID,97.764,VALID,0.009,VALID,20.261,VALID,93.0,VALID,0.0,
2018-12-09, 02:22:06,VALID,916.786,VALID,0.0,VALID,97.855,VALID,0.006,VALID,20.261,VALID,93.0,VALID,0.0,
2018-12-09, 02:23:06,VALID,916.785,VALID,0.0,VALID,97.831,VALID,0.016,VALID,20.234,VALID,93.0,VALID,0.0,
2018-12-09, 02:24:06,VALID,916.764,VALID,0.0,VALID,97.825,VALID,0.013,VALID,20.225,VALID,93.0,VALID,0.0,
2018-12-09, 02:25:06,VALID,916.769,VALID,0.0,VALID,97.861,VALID,0.013,VALID,20.214,VALID,93.0,VALID,0.0,
2018-12-09, 02:26:06,VALID,916.762,VALID,0.0,VALID,97.889,VALID,-0.018,VALID,20.205,VALID,93.0,VALID,0.0,
2018-12-09, 02:27:06,VALID,916.733,VALID,0.0,VALID,97.904,VALID,-0.026,VALID,20.192,VALID,93.0,VALID,0.0,
2018-12-09, 02:28:06,VALID,916.755,VALID,0.0,VALID,97.953,VALID,-0.01,VALID,20.197,VALID,93.0,VALID,0.0,
2018-12-09, 02:29:06,VALID,916.738,VALID,0.0,VALID,97.991,VALID,-0.007,VALID,20.2,VALID,92.0,VALID,0.0,
2018-12-09, 02:30:06,VALID,916.744,VALID,0.0,VALID,97.981,VALID,-0.016,VALID,20.185,VALID,104.0,VALID,0.0,
2018-12-09, 02:31:06,VALID,916.73,VALID,0.0,VALID,97.947,VALID,-0.018,VALID,20.171,VALID,100.0,VALID,0.0,
2018-12-09, 02:32:06,VALID,916.727,VALID,0.0,VALID,97.968,VALID,-0.022,VALID,20.164,VALID,102.0,VALID,0.0,
2018-12-09, 02:33:06,VALID,916.713,VALID,0.0,VALID,97.982,VALID,-0.03,VALID,20.155,VALID,103.0,VALID,0.0,
2018-12-09, 02:34:06,VALID,916.701,VALID,0.0,VALID,98.048,VALID,-0.025,VALID,20.153,VALID,112.0,VALID,0.0,
2018-12-09, 02:35:06,VALID,916.681,VALID,0.0,VALID,98.112,VALID,-0.025,VALID,20.149,VALID,114.0,VALID,0.0,
2018-12-09, 02:36:06,VALID,916.683,VALID,0.0,VALID,98.221,VALID,-0.012,VALID,20.133,VALID,115.0,VALID,0.0,
2018-12-09, 02:37:06,VALID,916.67,VALID,0.0,VALID,98.265,VALID,-0.014,VALID,20.122,VALID,116.0,VALID,0.0,
2018-12-09, 02:38:06,VALID,916.665,VALID,0.0,VALID,98.34,VALID,-0.013,VALID,20.117,VALID,110.0,VALID,0.0,
2018-12-09, 02:39:06,VALID,916.642,VALID,0.0,VALID,98.421,VALID,-0.012,VALID,20.109,VALID,111.0,VALID,0.0,
2018-12-09, 02:40:06,VALID,916.626,VALID,0.0,VALID,98.473,VALID,-0.022,VALID,20.101,VALID,115.0,VALID,0.0,
2018-12-09, 02:41:06,VALID,916.61,VALID,0.0,VALID,98.532,VALID,-0.003,VALID,20.094,VALID,117.0,VALID,0.0,
2018-12-09, 02:42:06,VALID,916.601,VALID,0.0,VALID,98.562,VALID,-0.001,VALID,20.099,VALID,123.0,VALID,0.0,
2018-12-09, 02:43:06,VALID,916.593,VALID,0.0,VALID,98.616,VALID,0.007,VALID,20.105,VALID,123.0,VALID,0.0,
2018-12-09, 02:44:06,VALID,916.588,VALID,0.0,VALID,98.658,VALID,-0.025,VALID,20.112,VALID,130.0,VALID,0.0,
2018-12-09, 02:45:06,VALID,916.578,VALID,0.0,VALID,98.662,VALID,0.005,VALID,20.115,VALID,126.0,VALID,0.0,
2018-12-09, 02:46:06,VALID,916.565,VALID,0.0,VALID,98.684,VALID,-0.013,VALID,20.132,VALID,124.0,VALID,0.0,
2018-12-09, 02:47:06,VALID,916.543,VALID,0.0,VALID,98.65,VALID,-0.001,VALID,20.13,VALID,133.0,VALID,0.0,
2018-12-09, 02:48:06,VALID,916.546,VALID,0.0,VALID,98.652,VALID,-0.008,VALID,20.132,VALID,127.0,VALID,0.0,
2018-12-09, 02:49:06,VALID,916.539,VALID,0.0,VALID,98.624,VALID,-0.004,VALID,20.136,VALID,124.0,VALID,0.0,
2018-12-09, 02:50:06,VALID,916.525,VALID,0.0,VALID,98.56,VALID,-0.011,VALID,20.124,VALID,123.0,VALID,0.0,
2018-12-09, 02:51:06,VALID,916.508,VALID,0.0,VALID,98.534,VALID,-0.006,VALID,20.125,VALID,122.0,VALID,0.0,
2018-12-09, 02:52:06,VALID,916.503,VALID,0.0,VALID,98.501,VALID,-0.012,VALID,20.115,VALID,115.0,VALID,0.0,
2018-12-09, 02:53:06,VALID,916.481,VALID,0.0,VALID,98.447,VALID,-0.002,VALID,20.104,VALID,107.0,VALID,0.0,
2018-12-09, 02:54:06,VALID,916.473,VALID,0.0,VALID,98.423,VALID,-0.02,VALID,20.105,VALID,112.0,VALID,0.0,
2018-12-09, 02:55:06,VALID,916.456,VALID,0.0,VALID,98.474,VALID,0.007,VALID,20.141,VALID,126.0,VALID,0.0,
2018-12-09, 02:56:06,VALID,916.439,VALID,0.0,VALID,98.516,VALID,0.0,VALID,20.156,VALID,123.0,VALID,0.0,
2018-12-09, 02:57:06,VALID,916.421,VALID,0.0,VALID,98.555,VALID,-0.009,VALID,20.155,VALID,124.0,VALID,0.0,
2018-12-09, 02:58:06,VALID,916.419,VALID,0.0,VALID,98.559,VALID,-0.007,VALID,20.15,VALID,116.0,VALID,0.0,
2018-12-09, 02:59:06,VALID,916.4,VALID,0.0,VALID,98.547,VALID,0.003,VALID,20.126,VALID,119.0,VALID,0.0,
2018-12-09, 03:00:06,VALID,916.405,VALID,0.0,VALID,98.563,VALID,-0.021,VALID,20.144,VALID,128.0,VALID,0.0,
2018-12-09, 03:01:06,VALID,916.38,VALID,0.0,VALID,98.565,VALID,0.005,VALID,20.157,VALID,128.0,VALID,0.0,
2018-12-09, 03:02:06,VALID,916.365,VALID,0.0,VALID,98.562,VALID,-0.006,VALID,20.161,VALID,128.0,VALID,0.0,
2018-12-09, 03:03:06,VALID,916.356,VALID,0.0,VALID,98.483,VALID,0.014,VALID,20.154,VALID,122.0,VALID,0.0,
2018-12-09, 03:04:06,VALID,916.349,VALID,0.0,VALID,98.398,VALID,-0.002,VALID,20.152,VALID,118.0,VALID,0.0,
2018-12-09, 03:05:06,VALID,916.319,VALID,0.0,VALID,98.335,VALID,-0.01,VALID,20.154,VALID,105.0,VALID,0.0,
2018-12-09, 03:06:06,VALID,916.318,VALID,0.0,VALID,98.277,VALID,0.002,VALID,20.149,VALID,96.0,VALID,0.0,
2018-12-09, 03:07:06,VALID,916.306,VALID,0.0,VALID,98.188,VALID,0.001,VALID,20.139,VALID,89.0,VALID,0.0,
2018-12-09, 03:08:06,VALID,916.295,VALID,0.0,VALID,98.061,VALID,0.015,VALID,20.139,VALID,85.0,VALID,0.0,
2018-12-09, 03:09:06,VALID,916.293,VALID,0.0,VALID,97.996,VALID,-0.002,VALID,20.142,VALID,84.0,VALID,0.0,
2018-12-09, 03:10:06,VALID,916.282,VALID,0.0,VALID,97.966,VALID,-0.007,VALID,20.149,VALID,89.0,VALID,0.0,
2018-12-09, 03:11:06,VALID,916.285,VALID,0.0,VALID,97.849,VALID,-0.007,VALID,20.139,VALID,99.0,VALID,0.0,
2018-12-09, 03:12:06,VALID,916.279,VALID,0.0,VALID,97.736,VALID,-0.021,VALID,20.143,VALID,104.0,VALID,0.0,
2018-12-09, 03:13:06,VALID,916.264,VALID,0.0,VALID,97.713,VALID,-0.027,VALID,20.165,VALID,94.0,VALID,0.0,
2018-12-09, 03:14:06,VALID,916.244,VALID,0.0,VALID,97.72,VALID,-0.004,VALID,20.2,VALID,78.0,VALID,0.0,
2018-12-09, 03:15:06,VALID,916.235,VALID,0.0,VALID,97.627,VALID,-0.008,VALID,20.208,VALID,66.0,VALID,0.0,
2018-12-09, 03:16:06,VALID,916.221,VALID,0.0,VALID,97.708,VALID,-0.011,VALID,20.225,VALID,54.0,VALID,0.0,
2018-12-09, 03:17:06,VALID,916.202,VALID,0.0,VALID,97.731,VALID,0.002,VALID,20.226,VALID,52.0,VALID,0.0,
2018-12-09, 03:18:06,VALID,916.202,VALID,0.0,VALID,97.772,VALID,0.003,VALID,20.234,VALID,55.0,VALID,0.0,
2018-12-09, 03:19:06,VALID,916.193,VALID,0.0,VALID,97.786,VALID,-0.005,VALID,20.219,VALID,67.0,VALID,0.0,
2018-12-09, 03:20:06,VALID,916.194,VALID,0.0,VALID,97.737,VALID,-0.023,VALID,20.185,VALID,58.0,VALID,0.0,
2018-12-09, 03:21:06,VALID,916.193,VALID,0.0,VALID,97.79,VALID,-0.01,VALID,20.176,VALID,67.0,VALID,0.0,
2018-12-09, 03:22:06,VALID,916.158,VALID,0.0,VALID,97.871,VALID,-0.026,VALID,20.175,VALID,66.0,VALID,0.0,
2018-12-09, 03:23:06,VALID,916.154,VALID,0.0,VALID,97.893,VALID,-0.016,VALID,20.155,VALID,82.0,VALID,0.0,
2018-12-09, 03:24:06,VALID,916.146,VALID,0.0,VALID,97.921,VALID,-0.024,VALID,20.141,VALID,89.0,VALID,0.0,
2018-12-09, 03:25:06,VALID,916.137,VALID,0.0,VALID,97.913,VALID,-0.003,VALID,20.11,VALID,97.0,VALID,0.0,
2018-12-09, 03:26:06,VALID,916.128,VALID,0.0,VALID,97.947,VALID,-0.02,VALID,20.095,VALID,108.0,VALID,0.0,
2018-12-09, 03:27:06,VALID,916.127,VALID,0.0,VALID,98.095,VALID,-0.014,VALID,20.105,VALID,121.0,VALID,0.0,
2018-12-09, 03:28:06,VALID,916.116,VALID,0.0,VALID,98.245,VALID,-0.016,VALID,20.131,VALID,123.0,VALID,0.0,
2018-12-09, 03:29:06,VALID,916.111,VALID,0.0,VALID,98.39,VALID,-0.015,VALID,20.166,VALID,125.0,VALID,0.0,
2018-12-09, 03:30:06,VALID,916.109,VALID,0.0,VALID,98.435,VALID,-0.017,VALID,20.169,VALID,123.0,VALID,0.0,
2018-12-09, 03:31:06,VALID,916.088,VALID,0.0,VALID,98.516,VALID,-0.023,VALID,20.18,VALID,127.0,VALID,0.0,
2018-12-09, 03:32:06,VALID,916.091,VALID,0.0,VALID,98.573,VALID,-0.015,VALID,20.189,VALID,122.0,VALID,0.0,
2018-12-09, 03:33:06,VALID,916.084,VALID,0.0,VALID,98.675,VALID,-0.021,VALID,20.232,VALID,124.0,VALID,0.0,
2018-12-09, 03:34:06,VALID,916.083,VALID,0.0,VALID,98.675,VALID,-0.028,VALID,20.219,VALID,125.0,VALID,0.0,
2018-12-09, 03:35:06,VALID,916.071,VALID,0.0,VALID,98.668,VALID,-0.013,VALID,20.183,VALID,130.0,VALID,0.0,
2018-12-09, 03:36:06,VALID,916.068,VALID,0.0,VALID,98.695,VALID,-0.018,VALID,20.178,VALID,95.0,VALID,0.0,
2018-12-09, 03:37:06,VALID,916.066,VALID,0.0,VALID,98.732,VALID,-0.01,VALID,20.18,VALID,147.0,VALID,0.0,
2018-12-09, 03:38:06,VALID,916.041,VALID,0.0,VALID,98.75,VALID,-0.006,VALID,20.186,VALID,155.0,VALID,0.0,
2018-12-09, 03:39:06,VALID,916.042,VALID,0.0,VALID,98.791,VALID,-0.009,VALID,20.198,VALID,151.0,VALID,0.0,
2018-12-09, 03:40:06,VALID,916.037,VALID,0.0,VALID,98.83,VALID,-0.0,VALID,20.194,VALID,133.0,VALID,0.0,
2018-12-09, 03:41:06,VALID,916.041,VALID,0.0,VALID,98.814,VALID,0.035,VALID,20.183,VALID,132.0,VALID,0.0,
2018-12-09, 03:42:06,VALID,916.034,VALID,0.0,VALID,98.799,VALID,0.03,VALID,20.153,VALID,129.0,VALID,0.0,